TimeMST,TemperatureF,Dew PointF,Humidity,Sea Level PressureIn,VisibilityMPH,Wind Direction,Wind SpeedMPH,Gust SpeedMPH,PrecipitationIn,Events,Conditions,WindDirDegrees,DateUTC
12:53 AM,34.0,21.0,59,30.23,10.0,Calm,Calm,-,N/A,,Clear,0,2012-11-07 07:53:00
1:53 AM,30.9,21.0,67,30.22,10.0,East,3.5,-,N/A,,Clear,100,2012-11-07 08:53:00
2:53 AM,32.0,19.9,61,30.20,10.0,SE,3.5,-,N/A,,Clear,140,2012-11-07 09:53:00
3:53 AM,30.0,19.9,66,30.20,10.0,SSW,3.5,-,N/A,,Clear,210,2012-11-07 10:53:00
4:53 AM,28.9,19.0,67,30.24,10.0,Calm,Calm,-,N/A,,Clear,0,2012-11-07 11:53:00
5:53 AM,28.0,19.0,69,30.27,10.0,East,3.5,-,N/A,,Clear,80,2012-11-07 12:53:00
6:53 AM,26.1,18.0,71,30.30,10.0,Calm,Calm,-,N/A,,Clear,0,2012-11-07 13:53:00
7:53 AM,32.0,19.9,61,30.29,10.0,Calm,Calm,-,N/A,,Clear,0,2012-11-07 14:53:00
8:53 AM,39.0,21.0,49,30.27,10.0,Calm,Calm,-,N/A,,Clear,0,2012-11-07 15:53:00
9:53 AM,46.0,21.9,39,30.23,10.0,NE,4.6,-,N/A,,Clear,50,2012-11-07 16:53:00
10:53 AM,52.0,23.0,32,30.19,10.0,Calm,Calm,-,N/A,,Clear,0,2012-11-07 17:53:00
11:53 AM,55.9,21.9,27,30.12,10.0,Calm,Calm,-,N/A,,Clear,0,2012-11-07 18:53:00
12:53 PM,61.0,21.9,22,30.05,10.0,WNW,4.6,-,N/A,,Clear,290,2012-11-07 19:53:00
1:53 PM,64.9,21.9,19,30.01,10.0,WSW,8.1,-,N/A,,Clear,240,2012-11-07 20:53:00
2:53 PM,66.9,19.9,17,29.98,10.0,West,24.2,29.9,N/A,,Clear,270,2012-11-07 21:53:00
3:53 PM,66.0,19.9,17,29.99,10.0,West,19.6,-,N/A,,Clear,260,2012-11-07 22:53:00
4:53 PM,61.0,19.9,21,30.00,10.0,West,12.7,-,N/A,,Clear,260,2012-11-07 23:53:00
5:53 PM,55.9,19.9,25,30.02,10.0,West,11.5,-,N/A,,Clear,260,2012-11-08 00:53:00
6:53 PM,52.0,19.9,28,30.06,10.0,SE,6.9,-,N/A,,Clear,140,2012-11-08 01:53:00
7:53 PM,48.9,19.9,32,30.05,10.0,Calm,Calm,-,N/A,,Clear,0,2012-11-08 02:53:00
8:53 PM,44.1,19.9,38,30.06,10.0,East,5.8,-,N/A,,Clear,90,2012-11-08 03:53:00
9:53 PM,39.9,21.0,47,30.05,10.0,SSW,3.5,-,N/A,,Clear,210,2012-11-08 04:53:00
10:53 PM,37.0,19.0,48,30.04,10.0,Calm,Calm,-,N/A,,Clear,0,2012-11-08 05:53:00
11:53 PM,35.1,19.0,52,30.03,10.0,Calm,Calm,-,N/A,,Clear,0,2012-11-08 06:53:00